| time (UTC) | temp F | wind direction | speed MPH | gust MPH | rain 1hr in | rain 24hr in | rain mn in | humidity % | barometer mb |
| 20260510132415 | 49 | 91 | 3.0 | 6.0 | 0.00 | 0.15 | 0.15 | 90 | 1024.6 |
| 20260510132326 | 49 | 87 | 3.0 | 6.0 | 0.00 | 0.15 | 0.15 | 90 | 1024.6 |
| 20260510131420 | 49 | 69 | 4.0 | 8.0 | 0.00 | 0.15 | 0.15 | 91 | 1024.4 |
| 20260510131310 | 49 | 91 | 4.0 | 8.0 | 0.00 | 0.15 | 0.15 | 91 | 1024.3 |
| 20260510130423 | 49 | 80 | 7.0 | 9.0 | 0.00 | 0.15 | 0.15 | 94 | 1023.9 |
| 20260510130313 | 49 | 82 | 7.0 | 9.0 | 0.00 | 0.15 | 0.15 | 94 | 1023.9 |
| 20260510125425 | 49 | 55 | 5.0 | 10.0 | 0.00 | 0.15 | 0.15 | 96 | 1024.1 |
| 20260510125320 | 49 | 47 | 6.0 | 10.0 | 0.00 | 0.15 | 0.15 | 96 | 1024.0 |
| 20260510124409 | 49 | 13 | 4.0 | 10.0 | 0.02 | 0.15 | 0.15 | 97 | 1023.9 |
| 20260510124322 | 49 | 21 | 3.0 | 10.0 | 0.02 | 0.15 | 0.15 | 97 | 1023.8 |
| 20260510123410 | 49 | 42 | 5.0 | 9.0 | 0.06 | 0.15 | 0.15 | 97 | 1023.2 |
| 20260510123321 | 49 | 55 | 4.0 | 9.0 | 0.07 | 0.15 | 0.15 | 97 | 1023.2 |
| 20260510122411 | 49 | 42 | 5.0 | 9.0 | 0.08 | 0.15 | 0.15 | 97 | 1022.9 |
| 20260510122324 | 49 | 46 | 6.0 | 9.0 | 0.08 | 0.15 | 0.15 | 97 | 1022.9 |
| 20260510121416 | 49 | 355 | 6.0 | 10.0 | 0.09 | 0.15 | 0.15 | 97 | 1022.5 |
| 20260510121311 | 49 | 45 | 6.0 | 10.0 | 0.09 | 0.15 | 0.15 | 97 | 1022.6 |
| 20260510120423 | 49 | 42 | 8.0 | 14.0 | 0.09 | 0.15 | 0.15 | 96 | 1022.0 |
| 20260510120316 | 49 | 32 | 7.0 | 14.0 | 0.09 | 0.15 | 0.15 | 96 | 1022.0 |
| 20260510115427 | 49 | 53 | 8.0 | 11.0 | 0.10 | 0.15 | 0.15 | 96 | 1021.7 |
| 20260510115317 | 49 | 43 | 8.0 | 11.0 | 0.10 | 0.15 | 0.15 | 95 | 1021.7 |
| 20260510114409 | 49 | 32 | 5.0 | 8.0 | 0.08 | 0.13 | 0.13 | 95 | 1022.3 |
| 20260510114321 | 49 | 42 | 4.0 | 8.0 | 0.08 | 0.13 | 0.13 | 95 | 1022.4 |
| 20260510113411 | 49 | 132 | 4.0 | 5.0 | 0.05 | 0.09 | 0.09 | 95 | 1021.9 |
| 20260510113328 | 49 | 84 | 4.0 | 5.0 | 0.04 | 0.08 | 0.08 | 95 | 1021.9 |
| 20260510112417 | 49 | 28 | 6.0 | 11.0 | 0.03 | 0.07 | 0.07 | 95 | 1022.4 |
| 20260510112310 | 49 | 336 | 6.0 | 11.0 | 0.03 | 0.07 | 0.07 | 95 | 1022.4 |
| 20260510111422 | 49 | 336 | 7.0 | 14.0 | 0.02 | 0.06 | 0.06 | 95 | 1022.7 |
| 20260510111315 | 49 | 344 | 7.0 | 15.0 | 0.02 | 0.06 | 0.06 | 95 | 1022.6 |
| 20260510110424 | 50 | 307 | 11.0 | 17.0 | 0.02 | 0.06 | 0.06 | 95 | 1022.6 |
| 20260510110316 | 50 | 309 | 10.0 | 17.0 | 0.02 | 0.06 | 0.06 | 95 | 1022.5 |
| 20260510105427 | 50 | 325 | 12.0 | 19.0 | 0.01 | 0.05 | 0.05 | 94 | 1022.3 |
| 20260510105324 | 50 | 302 | 12.0 | 19.0 | 0.01 | 0.05 | 0.05 | 94 | 1022.3 |
| 20260510104436 | 50 | 302 | 11.0 | 17.0 | 0.01 | 0.05 | 0.05 | 94 | 1022.2 |
| 20260510104346 | 50 | 329 | 11.0 | 17.0 | 0.01 | 0.05 | 0.05 | 94 | 1022.2 |
| 20260510103416 | 49 | 336 | 10.0 | 15.0 | 0.00 | 0.04 | 0.04 | 93 | 1021.9 |
| 20260510103329 | 49 | 336 | 10.0 | 14.0 | 0.00 | 0.04 | 0.04 | 93 | 1021.9 |
| 20260510102419 | 49 | 315 | 6.0 | 9.0 | 0.00 | 0.04 | 0.04 | 92 | 1021.6 |
| 20260510102312 | 49 | 331 | 6.0 | 9.0 | 0.00 | 0.04 | 0.04 | 92 | 1021.5 |
| 20260510101443 | 49 | 324 | 4.0 | 6.0 | 0.00 | 0.04 | 0.04 | 92 | 1021.3 |
| 20260510101316 | 49 | 330 | 4.0 | 6.0 | 0.00 | 0.04 | 0.04 | 92 | 1021.3 |
| 20260510100427 | 49 | 360 | 4.0 | 8.0 | 0.00 | 0.04 | 0.04 | 92 | 1021.2 |
| 20260510100322 | 49 | 360 | 4.0 | 8.0 | 0.00 | 0.04 | 0.04 | 92 | 1021.2 |
| 20260510095413 | 50 | 5 | 6.0 | 12.0 | 0.00 | 0.04 | 0.04 | 92 | 1021.0 |
| 20260510095325 | 49 | 350 | 6.0 | 12.0 | 0.00 | 0.04 | 0.04 | 92 | 1021.0 |
| 20260510094416 | 49 | 355 | 9.0 | 12.0 | 0.00 | 0.04 | 0.04 | 92 | 1020.9 |
| 20260510094309 | 49 | 5 | 7.0 | 12.0 | 0.00 | 0.04 | 0.04 | 92 | 1020.9 |
| 20260510093420 | 50 | 9 | 9.0 | 13.0 | 0.00 | 0.04 | 0.04 | 92 | 1020.7 |
| 20260510093314 | 50 | 355 | 9.0 | 13.0 | 0.00 | 0.04 | 0.04 | 92 | 1020.6 |
| 20260510092426 | 50 | 309 | 9.0 | 14.0 | 0.00 | 0.04 | 0.04 | 92 | 1020.5 |
| 20260510092322 | 50 | 36 | 8.0 | 14.0 | 0.00 | 0.04 | 0.04 | 92 | 1020.5 |
| 20260510091414 | 50 | 34 | 9.0 | 15.0 | 0.00 | 0.04 | 0.04 | 93 | 1020.4 |
| 20260510091328 | 50 | 338 | 9.0 | 15.0 | 0.00 | 0.04 | 0.04 | 93 | 1020.4 |
| 20260510090419 | 50 | 360 | 9.0 | 13.0 | 0.00 | 0.04 | 0.04 | 92 | 1020.4 |
| 20260510090312 | 50 | 321 | 9.0 | 13.0 | 0.00 | 0.04 | 0.04 | 92 | 1020.4 |
| 20260510085423 | 50 | 12 | 5.0 | 9.0 | 0.00 | 0.04 | 0.04 | 91 | 1020.2 |
| 20260510085315 | 50 | 5 | 4.0 | 6.0 | 0.00 | 0.04 | 0.04 | 91 | 1020.2 |
| 20260510084426 | 49 | 135 | 1.0 | 4.0 | 0.00 | 0.04 | 0.04 | 91 | 1019.8 |
| 20260510084323 | 49 | 135 | 2.0 | 4.0 | 0.00 | 0.04 | 0.04 | 91 | 1019.7 |
| 20260510083434 | 50 | 84 | 3.0 | 9.0 | 0.00 | 0.04 | 0.04 | 90 | 1019.5 |
| 20260510083327 | 49 | 98 | 3.0 | 9.0 | 0.00 | 0.04 | 0.04 | 90 | 1019.5 |
| 20260510082439 | 50 | 87 | 4.0 | 8.0 | 0.00 | 0.04 | 0.04 | 90 | 1019.2 |
| 20260510082310 | 50 | 86 | 5.0 | 8.0 | 0.00 | 0.04 | 0.04 | 90 | 1019.2 |
| 20260510081422 | 50 | 84 | 5.0 | 9.0 | 0.00 | 0.04 | 0.04 | 89 | 1019.0 |
| 20260510081332 | 50 | 80 | 5.0 | 9.0 | 0.00 | 0.04 | 0.04 | 89 | 1019.0 |
| 20260510080424 | 50 | 49 | 8.0 | 14.0 | 0.01 | 0.04 | 0.04 | 89 | 1019.1 |
| 20260510080316 | 50 | 61 | 9.0 | 14.0 | 0.01 | 0.04 | 0.04 | 89 | 1019.1 |
| 20260510075428 | 51 | 65 | 12.0 | 18.0 | 0.02 | 0.04 | 0.04 | 88 | 1018.8 |
| 20260510075325 | 51 | 59 | 13.0 | 18.0 | 0.02 | 0.04 | 0.04 | 87 | 1018.8 |
| 20260510074415 | 51 | 49 | 12.0 | 21.0 | 0.04 | 0.04 | 0.04 | 87 | 1018.5 |
| 20260510074328 | 51 | 61 | 13.0 | 21.0 | 0.04 | 0.04 | 0.04 | 87 | 1018.5 |
| 20260510073420 | 52 | 62 | 17.0 | 23.0 | 0.04 | 0.04 | 0.04 | 86 | 1018.7 |
| 20260510073313 | 52 | 63 | 17.0 | 23.0 | 0.04 | 0.04 | 0.04 | 85 | 1018.8 |
| 20260510072445 | 52 | 50 | 14.0 | 18.0 | 0.04 | 0.04 | 0.04 | 86 | 1019.6 |
| 20260510072316 | 52 | 47 | 10.0 | 16.0 | 0.04 | 0.04 | 0.04 | 86 | 1019.9 |
| 20260510071429 | 53 | 360 | 6.0 | 20.0 | 0.04 | 0.04 | 0.04 | 83 | 1020.7 |
| 20260510071319 | 53 | 355 | 7.0 | 20.0 | 0.04 | 0.04 | 0.04 | 83 | 1020.6 |
| 20260510070430 | 53 | 53 | 15.0 | 27.0 | 0.03 | 0.03 | 0.03 | 82 | 1020.2 |
| 20260510070324 | 53 | 78 | 16.0 | 27.0 | 0.03 | 0.03 | 0.03 | 82 | 1020.1 |
| 20260510065416 | 53 | 57 | 10.0 | 23.0 | 0.02 | 0.02 | 0.02 | 83 | 1020.7 |
| 20260510065348 | 53 | 28 | 10.0 | 26.0 | 0.02 | 0.02 | 0.02 | 83 | 1020.7 |
| 20260510064418 | 54 | 61 | 17.0 | 25.0 | 0.00 | 0.00 | 0.00 | 77 | 1019.9 |
| 20260510064311 | 54 | 52 | 17.0 | 24.0 | 0.00 | 0.00 | 0.00 | 77 | 1019.9 |
| 20260510063423 | 54 | 22 | 11.0 | 20.0 | 0.00 | 0.00 | 0.00 | 79 | 1020.2 |
| 20260510063314 | 54 | 24 | 12.0 | 20.0 | 0.00 | 0.00 | 0.00 | 79 | 1020.1 |
| 20260510062427 | 54 | 35 | 13.0 | 24.0 | 0.00 | 0.00 | 0.00 | 78 | 1019.7 |
| 20260510062324 | 54 | 63 | 12.0 | 27.0 | 0.00 | 0.00 | 0.00 | 78 | 1019.6 |
| 20260510061415 | 54 | 40 | 19.0 | 25.0 | 0.00 | 0.00 | 0.00 | 78 | 1019.1 |
| 20260510061327 | 54 | 63 | 19.0 | 24.0 | 0.00 | 0.00 | 0.00 | 78 | 1019.1 |
| 20260510060418 | 54 | 44 | 15.0 | 27.0 | 0.00 | 0.00 | 0.00 | 77 | 1019.1 |
| 20260510060311 | 54 | 40 | 14.0 | 28.0 | 0.00 | 0.00 | 0.00 | 77 | 1019.1 |
| 20260510055422 | 54 | 47 | 21.0 | 34.0 | 0.00 | 0.00 | 0.00 | 75 | 1018.8 |
| 20260510055312 | 54 | 42 | 22.0 | 34.0 | 0.00 | 0.00 | 0.00 | 75 | 1018.7 |
| 20260510054423 | 54 | 59 | 17.0 | 26.0 | 0.00 | 0.00 | 0.00 | 75 | 1018.8 |
| 20260510054316 | 54 | 41 | 18.0 | 26.0 | 0.00 | 0.00 | 0.00 | 75 | 1018.9 |
| 20260510053411 | 54 | 49 | 14.0 | 28.0 | 0.00 | 0.00 | 0.00 | 75 | 1018.8 |
| 20260510053323 | 54 | 28 | 16.0 | 28.0 | 0.00 | 0.00 | 0.00 | 75 | 1018.8 |
| 20260510052414 | 54 | 43 | 18.0 | 27.0 | 0.00 | 0.00 | 0.00 | 74 | 1018.4 |
| 20260510052325 | 54 | 53 | 18.0 | 27.0 | 0.00 | 0.00 | 0.00 | 74 | 1018.3 |
| 20260510051437 | 54 | 36 | 16.0 | 26.0 | 0.00 | 0.00 | 0.00 | 74 | 1018.1 |
| 20260510051309 | 54 | 55 | 16.0 | 26.0 | 0.00 | 0.00 | 0.00 | 74 | 1018.2 |
| 20260510050441 | 55 | 39 | 19.0 | 26.0 | 0.00 | 0.00 | 0.00 | 72 | 1018.3 |
| 20260510050313 | 55 | 38 | 18.0 | 25.0 | 0.00 | 0.00 | 0.00 | 72 | 1018.3 |
| 20260510045444 | 55 | 355 | 18.0 | 30.0 | 0.00 | 0.00 | 0.00 | 70 | 1018.2 |
| 20260510045316 | 55 | 38 | 18.0 | 30.0 | 0.00 | 0.00 | 0.00 | 70 | 1018.2 |
| 20260510044448 | 55 | 68 | 19.0 | 27.0 | 0.00 | 0.00 | 0.00 | 70 | 1018.3 |
| 20260510044343 | 55 | 44 | 17.0 | 26.0 | 0.00 | 0.00 | 0.00 | 71 | 1018.4 |
| 20260510043416 | 57 | 32 | 18.0 | 23.0 | 0.00 | 0.00 | 0.00 | 70 | 1019.0 |
| 20260510043330 | 57 | 38 | 17.0 | 23.0 | 0.00 | 0.00 | 0.00 | 69 | 1019.0 |
| 20260510042419 | 60 | 5 | 16.0 | 26.0 | 0.00 | 0.00 | 0.00 | 61 | 1018.8 |
| 20260510042312 | 60 | 338 | 18.0 | 26.0 | 0.00 | 0.00 | 0.00 | 60 | 1018.8 |
| 20260510041424 | 61 | 326 | 13.0 | 24.0 | 0.00 | 0.00 | 0.00 | 56 | 1018.6 |
| 20260510041317 | 61 | 34 | 14.0 | 25.0 | 0.00 | 0.00 | 0.00 | 55 | 1018.5 |
| 20260510040428 | 61 | 20 | 17.0 | 33.0 | 0.00 | 0.00 | 0.00 | 54 | 1018.0 |
| 20260510040323 | 61 | 343 | 20.0 | 34.0 | 0.00 | 0.00 | 0.00 | 53 | 1018.1 |
| 20260510035413 | 61 | 306 | 30.0 | 38.0 | 0.00 | 0.00 | 0.00 | 59 | 1018.1 |
| 20260510035326 | 60 | 334 | 26.0 | 38.0 | 0.00 | 0.00 | 0.00 | 60 | 1017.8 |
| 20260510034437 | 61 | 48 | 14.0 | 21.0 | 0.00 | 0.00 | 0.00 | 60 | 1014.9 |
| 20260510034328 | 61 | 45 | 15.0 | 21.0 | 0.00 | 0.00 | 0.00 | 60 | 1014.9 |
| 20260510033420 | 61 | 69 | 15.0 | 21.0 | 0.00 | 0.00 | 0.00 | 59 | 1014.4 |
| 20260510033313 | 61 | 50 | 15.0 | 21.0 | 0.00 | 0.00 | 0.00 | 59 | 1014.4 |
| 20260510032428 | 62 | 59 | 12.0 | 18.0 | 0.00 | 0.00 | 0.00 | 57 | 1014.2 |
| 20260510032319 | 62 | 59 | 11.0 | 20.0 | 0.00 | 0.00 | 0.00 | 57 | 1014.1 |
| 20260510031410 | 62 | 88 | 13.0 | 22.0 | 0.00 | 0.00 | 0.00 | 56 | 1013.5 |
| 20260510031327 | 62 | 87 | 14.0 | 22.0 | 0.00 | 0.00 | 0.00 | 56 | 1013.4 |
| 20260510030418 | 63 | 93 | 17.0 | 26.0 | 0.00 | 0.00 | 0.00 | 55 | 1012.8 |
| 20260510030328 | 63 | 65 | 18.0 | 26.0 | 0.00 | 0.00 | 0.00 | 55 | 1012.8 |
| 20260510025440 | 63 | 82 | 14.0 | 19.0 | 0.00 | 0.00 | 0.00 | 54 | 1012.9 |
| 20260510025311 | 63 | 62 | 13.0 | 18.0 | 0.00 | 0.00 | 0.00 | 54 | 1012.9 |
| 20260510024424 | 64 | 61 | 11.0 | 20.0 | 0.00 | 0.00 | 0.00 | 53 | 1012.9 |
| 20260510024317 | 64 | 65 | 13.0 | 20.0 | 0.00 | 0.00 | 0.00 | 53 | 1012.9 |
| 20260510023450 | 64 | 62 | 12.0 | 18.0 | 0.00 | 0.00 | 0.00 | 53 | 1012.8 |
| 20260510023322 | 64 | 69 | 13.0 | 18.0 | 0.00 | 0.00 | 0.00 | 53 | 1012.8 |
| 20260510022413 | 65 | 84 | 12.0 | 19.0 | 0.00 | 0.00 | 0.00 | 53 | 1012.7 |
| 20260510022310 | 65 | 53 | 12.0 | 19.0 | 0.00 | 0.00 | 0.00 | 53 | 1012.7 |
| 20260510021422 | 65 | 59 | 12.0 | 19.0 | 0.00 | 0.00 | 0.00 | 52 | 1012.4 |
| 20260510021315 | 65 | 73 | 12.0 | 20.0 | 0.00 | 0.00 | 0.00 | 52 | 1012.4 |
| 20260510020427 | 66 | 71 | 15.0 | 20.0 | 0.00 | 0.00 | 0.00 | 51 | 1012.3 |
| 20260510020317 | 66 | 85 | 14.0 | 20.0 | 0.00 | 0.00 | 0.00 | 51 | 1012.3 |
| 20260510015447 | 66 | 92 | 16.0 | 22.0 | 0.00 | 0.00 | 0.00 | 50 | 1012.0 |
| 20260510015338 | 66 | 76 | 14.0 | 22.0 | 0.00 | 0.00 | 0.00 | 50 | 1012.0 |
| 20260510014429 | 67 | 76 | 15.0 | 22.0 | 0.00 | 0.00 | 0.00 | 49 | 1011.8 |
| 20260510014321 | 67 | 82 | 15.0 | 22.0 | 0.00 | 0.00 | 0.00 | 49 | 1011.8 |
| 20260510013414 | 68 | 71 | 15.0 | 20.0 | 0.00 | 0.00 | 0.00 | 48 | 1011.8 |
| 20260510013347 | 68 | 93 | 14.0 | 20.0 | 0.00 | 0.00 | 0.00 | 48 | 1011.7 |
| 20260510012416 | 69 | 71 | 13.0 | 23.0 | 0.00 | 0.00 | 0.00 | 47 | 1011.7 |
| 20260510012328 | 69 | 81 | 14.0 | 23.0 | 0.00 | 0.00 | 0.00 | 47 | 1011.7 |
| 20260510011419 | 69 | 46 | 16.0 | 26.0 | 0.00 | 0.00 | 0.00 | 46 | 1011.5 |
| 20260510011311 | 69 | 83 | 17.0 | 26.0 | 0.00 | 0.00 | 0.00 | 46 | 1011.4 |
| 20260510010423 | 70 | 67 | 19.0 | 26.0 | 0.00 | 0.00 | 0.00 | 46 | 1011.5 |
| 20260510010316 | 70 | 63 | 17.0 | 26.0 | 0.00 | 0.00 | 0.00 | 46 | 1011.4 |
| 20260510005427 | 71 | 77 | 16.0 | 23.0 | 0.00 | 0.00 | 0.00 | 45 | 1011.5 |
| 20260510005323 | 71 | 64 | 16.0 | 23.0 | 0.00 | 0.00 | 0.00 | 45 | 1011.5 |
| 20260510004415 | 72 | 52 | 15.0 | 24.0 | 0.00 | 0.00 | 0.00 | 44 | 1011.2 |
| 20260510004328 | 72 | 71 | 15.0 | 24.0 | 0.00 | 0.00 | 0.00 | 44 | 1011.2 |
| 20260510003419 | 73 | 67 | 19.0 | 26.0 | 0.00 | 0.00 | 0.00 | 42 | 1010.7 |
| 20260510003312 | 73 | 63 | 18.0 | 25.0 | 0.00 | 0.00 | 0.00 | 42 | 1010.6 |
| 20260510002424 | 74 | 65 | 19.0 | 27.0 | 0.00 | 0.00 | 0.00 | 41 | 1010.3 |
| 20260510002317 | 74 | 61 | 20.0 | 27.0 | 0.00 | 0.00 | 0.00 | 41 | 1010.3 |
| 20260510001428 | 75 | 65 | 22.0 | 32.0 | 0.00 | 0.00 | 0.00 | 40 | 1010.1 |
| 20260510001325 | 75 | 56 | 23.0 | 32.0 | 0.00 | 0.00 | 0.00 | 39 | 1010.1 |
| 20260510000418 | 77 | 55 | 24.0 | 31.0 | 0.00 | 0.00 | 0.00 | 38 | 1009.8 |
| 20260510000328 | 77 | 62 | 24.0 | 31.0 | 0.00 | 0.00 | 0.00 | 38 | 1009.8 |
| 20260509235420 | 78 | 67 | 15.0 | 22.0 | 0.00 | 0.00 | 0.00 | 34 | 1009.6 |
| 20260509235313 | 78 | 53 | 14.0 | 22.0 | 0.00 | 0.00 | 0.00 | 34 | 1009.6 |
| 20260509234446 | 78 | 29 | 15.0 | 31.0 | 0.00 | 0.00 | 0.00 | 34 | 1009.6 |
| 20260509234338 | 78 | 41 | 16.0 | 31.0 | 0.00 | 0.00 | 0.00 | 34 | 1009.7 |
| 20260509233428 | 79 | 32 | 12.0 | 23.0 | 0.00 | 0.00 | 0.00 | 36 | 1009.6 |
| 20260509233321 | 79 | 28 | 11.0 | 23.0 | 0.00 | 0.00 | 0.00 | 35 | 1009.7 |
| 20260509232416 | 79 | 33 | 14.0 | 20.0 | 0.00 | 0.00 | 0.00 | 35 | 1009.5 |
| 20260509232329 | 79 | 43 | 12.0 | 19.0 | 0.00 | 0.00 | 0.00 | 34 | 1009.5 |
| 20260509231421 | 80 | 36 | 14.0 | 24.0 | 0.00 | 0.00 | 0.00 | 34 | 1009.3 |
| 20260509231312 | 80 | 50 | 15.0 | 24.0 | 0.00 | 0.00 | 0.00 | 34 | 1009.2 |
| 20260509230423 | 80 | 19 | 15.0 | 23.0 | 0.00 | 0.00 | 0.00 | 33 | 1009.2 |
| 20260509230316 | 80 | 55 | 16.0 | 23.0 | 0.00 | 0.00 | 0.00 | 33 | 1009.1 |
| 20260509225425 | 81 | 17 | 13.0 | 22.0 | 0.00 | 0.00 | 0.00 | 31 | 1009.4 |
| 20260509225319 | 81 | 349 | 12.0 | 22.0 | 0.00 | 0.00 | 0.00 | 31 | 1009.5 |
| 20260509224414 | 81 | 22 | 11.0 | 22.0 | 0.00 | 0.00 | 0.00 | 30 | 1009.5 |
| 20260509224326 | 81 | 23 | 11.0 | 22.0 | 0.00 | 0.00 | 0.00 | 30 | 1009.5 |
| 20260509223416 | 81 | 14 | 12.0 | 26.0 | 0.00 | 0.00 | 0.00 | 32 | 1009.5 |
| 20260509223349 | 81 | 355 | 13.0 | 26.0 | 0.00 | 0.00 | 0.00 | 31 | 1009.5 |
| 20260509222418 | 81 | 306 | 15.0 | 24.0 | 0.00 | 0.00 | 0.00 | 31 | 1009.5 |
| 20260509222350 | 82 | 13 | 15.0 | 24.0 | 0.00 | 0.00 | 0.00 | 31 | 1009.5 |
| 20260509221440 | 82 | 342 | 14.0 | 21.0 | 0.00 | 0.00 | 0.00 | 30 | 1009.5 |
| 20260509221330 | 82 | 339 | 15.0 | 22.0 | 0.00 | 0.00 | 0.00 | 30 | 1009.5 |
| 20260509220421 | 82 | 329 | 17.0 | 26.0 | 0.00 | 0.00 | 0.00 | 32 | 1009.4 |
| 20260509220314 | 82 | 347 | 18.0 | 26.0 | 0.00 | 0.00 | 0.00 | 31 | 1009.5 |
| 20260509215426 | 82 | 344 | 18.0 | 23.0 | 0.00 | 0.00 | 0.00 | 30 | 1009.5 |
| 20260509215322 | 82 | 336 | 18.0 | 23.0 | 0.00 | 0.00 | 0.00 | 31 | 1009.5 |
| 20260509214413 | 82 | 360 | 12.0 | 25.0 | 0.00 | 0.00 | 0.00 | 30 | 1009.5 |
| 20260509214327 | 82 | 11 | 13.0 | 25.0 | 0.00 | 0.00 | 0.00 | 29 | 1009.5 |
| 20260509213418 | 82 | 344 | 19.0 | 25.0 | 0.00 | 0.00 | 0.00 | 29 | 1009.5 |
| 20260509213311 | 82 | 330 | 20.0 | 25.0 | 0.00 | 0.00 | 0.00 | 30 | 1009.5 |
| 20260509212422 | 83 | 346 | 19.0 | 28.0 | 0.00 | 0.00 | 0.00 | 29 | 1009.5 |
| 20260509212315 | 83 | 327 | 18.0 | 28.0 | 0.00 | 0.00 | 0.00 | 30 | 1009.5 |
| 20260509211411 | 82 | 349 | 15.0 | 26.0 | 0.00 | 0.00 | 0.00 | 32 | 1009.5 |
| 20260509211324 | 82 | 338 | 16.0 | 26.0 | 0.00 | 0.00 | 0.00 | 32 | 1009.6 |
| 20260509210416 | 82 | 339 | 17.0 | 28.0 | 0.00 | 0.00 | 0.00 | 32 | 1009.5 |
| 20260509210348 | 82 | 355 | 15.0 | 28.0 | 0.00 | 0.00 | 0.00 | 31 | 1009.4 |
| 20260509205417 | 82 | 340 | 16.0 | 27.0 | 0.00 | 0.00 | 0.00 | 30 | 1009.4 |
| 20260509205328 | 82 | 329 | 16.0 | 27.0 | 0.00 | 0.00 | 0.00 | 30 | 1009.4 |
| 20260509204440 | 83 | 299 | 17.0 | 22.0 | 0.00 | 0.00 | 0.00 | 32 | 1009.4 |
| 20260509204311 | 83 | 344 | 15.0 | 21.0 | 0.00 | 0.00 | 0.00 | 32 | 1009.5 |
| 20260509203424 | 83 | 332 | 18.0 | 28.0 | 0.00 | 0.00 | 0.00 | 31 | 1009.5 |
| 20260509203321 | 83 | 355 | 18.0 | 28.0 | 0.00 | 0.00 | 0.00 | 31 | 1009.5 |
| 20260509202411 | 83 | 322 | 19.0 | 25.0 | 0.00 | 0.00 | 0.00 | 30 | 1009.6 |
| 20260509202323 | 83 | 327 | 17.0 | 25.0 | 0.00 | 0.00 | 0.00 | 30 | 1009.5 |
| 20260509201414 | 83 | 346 | 12.0 | 28.0 | 0.00 | 0.00 | 0.00 | 33 | 1009.5 |
| 20260509201347 | 83 | 327 | 14.0 | 28.0 | 0.00 | 0.00 | 0.00 | 33 | 1009.5 |
| 20260509200418 | 84 | 308 | 16.0 | 25.0 | 0.00 | 0.00 | 0.00 | 32 | 1009.4 |
| 20260509200311 | 84 | 321 | 15.0 | 25.0 | 0.00 | 0.00 | 0.00 | 32 | 1009.5 |
| 20260509195422 | 83 | 325 | 16.0 | 25.0 | 0.00 | 0.00 | 0.00 | 32 | 1009.3 |
| 20260509195314 | 84 | 306 | 15.0 | 25.0 | 0.00 | 0.00 | 0.00 | 32 | 1009.4 |
| 20260509194425 | 83 | 60 | 14.0 | 19.0 | 0.00 | 0.00 | 0.00 | 31 | 1009.3 |
| 20260509194322 | 83 | 329 | 13.0 | 19.0 | 0.00 | 0.00 | 0.00 | 34 | 1009.3 |
| 20260509193413 | 84 | 331 | 7.0 | 21.0 | 0.00 | 0.00 | 0.00 | 31 | 1009.2 |
| 20260509193327 | 84 | 332 | 7.0 | 21.0 | 0.00 | 0.00 | 0.00 | 31 | 1009.2 |
| 20260509192418 | 83 | 328 | 14.0 | 22.0 | 0.00 | 0.00 | 0.00 | 33 | 1009.1 |
| 20260509192310 | 83 | 304 | 15.0 | 22.0 | 0.00 | 0.00 | 0.00 | 33 | 1009.2 |
| 20260509191423 | 84 | 314 | 11.0 | 20.0 | 0.00 | 0.00 | 0.00 | 31 | 1009.3 |
| 20260509191315 | 83 | 28 | 11.0 | 20.0 | 0.00 | 0.00 | 0.00 | 31 | 1009.2 |
| 20260509190426 | 83 | 266 | 10.0 | 20.0 | 0.00 | 0.00 | 0.00 | 33 | 1009.1 |
| 20260509190342 | 83 | 325 | 8.0 | 20.0 | 0.00 | 0.00 | 0.00 | 31 | 1009.2 |
| 20260509185411 | 83 | 345 | 13.0 | 19.0 | 0.00 | 0.00 | 0.00 | 32 | 1009.1 |
| 20260509185324 | 83 | 340 | 13.0 | 19.0 | 0.00 | 0.00 | 0.00 | 31 | 1009.2 |
| 20260509184414 | 83 | 284 | 8.0 | 17.0 | 0.00 | 0.00 | 0.00 | 31 | 1009.3 |
| 20260509184327 | 83 | 259 | 10.0 | 17.0 | 0.00 | 0.00 | 0.00 | 31 | 1009.3 |
| 20260509183418 | 82 | 289 | 11.0 | 18.0 | 0.00 | 0.00 | 0.00 | 34 | 1009.5 |
| 20260509183312 | 82 | 288 | 13.0 | 18.0 | 0.00 | 0.00 | 0.00 | 34 | 1009.5 |
| 20260509182444 | 82 | 321 | 8.0 | 14.0 | 0.00 | 0.00 | 0.00 | 33 | 1009.6 |
| 20260509182314 | 82 | 303 | 6.0 | 14.0 | 0.00 | 0.00 | 0.00 | 32 | 1009.6 |
| 20260509181427 | 81 | 325 | 11.0 | 16.0 | 0.00 | 0.00 | 0.00 | 34 | 1009.7 |
| 20260509181323 | 81 | 334 | 10.0 | 14.0 | 0.00 | 0.00 | 0.00 | 36 | 1009.7 |
| 20260509180449 | 79 | 325 | 5.0 | 12.0 | 0.00 | 0.00 | 0.00 | 36 | 1009.7 |
| 20260509180320 | 79 | 346 | 3.0 | 14.0 | 0.00 | 0.00 | 0.00 | 37 | 1009.7 |
| 20260509175432 | 78 | 272 | 6.0 | 14.0 | 0.00 | 0.00 | 0.00 | 36 | 1009.9 |
| 20260509175324 | 78 | 281 | 7.0 | 14.0 | 0.00 | 0.00 | 0.00 | 36 | 1009.9 |
| 20260509174415 | 78 | 315 | 7.0 | 12.0 | 0.00 | 0.00 | 0.00 | 38 | 1010.0 |
| 20260509174328 | 78 | 306 | 7.0 | 12.0 | 0.00 | 0.00 | 0.00 | 38 | 1010.0 |
| 20260509173420 | 78 | 338 | 7.0 | 14.0 | 0.00 | 0.00 | 0.00 | 37 | 1010.1 |
| 20260509173332 | 78 | 273 | 6.0 | 13.0 | 0.00 | 0.00 | 0.00 | 36 | 1010.0 |
| 20260509172421 | 78 | 250 | 10.0 | 15.0 | 0.00 | 0.00 | 0.00 | 38 | 1010.1 |
| 20260509172318 | 78 | 264 | 11.0 | 15.0 | 0.00 | 0.00 | 0.00 | 39 | 1010.1 |
| 20260509171431 | 78 | 219 | 11.0 | 19.0 | 0.00 | 0.00 | 0.00 | 38 | 1010.0 |
| 20260509171322 | 78 | 203 | 11.0 | 19.0 | 0.00 | 0.00 | 0.00 | 37 | 1010.1 |
| 20260509170415 | 78 | 234 | 10.0 | 17.0 | 0.00 | 0.00 | 0.00 | 39 | 1010.2 |
| 20260509170328 | 78 | 274 | 11.0 | 17.0 | 0.00 | 0.00 | 0.00 | 40 | 1010.2 |
| 20260509165440 | 78 | 260 | 12.0 | 21.0 | 0.00 | 0.00 | 0.00 | 38 | 1010.3 |
| 20260509165333 | 78 | 227 | 13.0 | 21.0 | 0.00 | 0.00 | 0.00 | 37 | 1010.3 |
| 20260509164421 | 78 | 241 | 12.0 | 20.0 | 0.00 | 0.00 | 0.00 | 37 | 1010.1 |
| 20260509164318 | 78 | 253 | 13.0 | 20.0 | 0.00 | 0.00 | 0.00 | 38 | 1010.1 |
| 20260509163430 | 77 | 253 | 16.0 | 24.0 | 0.00 | 0.00 | 0.00 | 39 | 1010.2 |
| 20260509163323 | 76 | 234 | 15.0 | 24.0 | 0.00 | 0.00 | 0.00 | 39 | 1010.2 |
| 20260509162412 | 75 | 217 | 17.0 | 21.0 | 0.00 | 0.00 | 0.00 | 40 | 1010.3 |
| 20260509162326 | 75 | 229 | 17.0 | 25.0 | 0.00 | 0.00 | 0.00 | 40 | 1010.3 |
| 20260509161417 | 75 | 209 | 16.0 | 28.0 | 0.00 | 0.00 | 0.00 | 40 | 1010.1 |
| 20260509161329 | 75 | 202 | 16.0 | 28.0 | 0.00 | 0.00 | 0.00 | 39 | 1010.1 |
| 20260509160419 | 75 | 198 | 20.0 | 26.0 | 0.00 | 0.00 | 0.00 | 40 | 1010.1 |
| 20260509160331 | 75 | 209 | 19.0 | 25.0 | 0.00 | 0.00 | 0.00 | 39 | 1010.1 |
| 20260509155441 | 74 | 209 | 21.0 | 31.0 | 0.00 | 0.00 | 0.00 | 40 | 1010.1 |
| 20260509155316 | 74 | 196 | 20.0 | 31.0 | 0.00 | 0.00 | 0.00 | 41 | 1010.1 |
| 20260509154408 | 74 | 215 | 19.0 | 31.0 | 0.00 | 0.00 | 0.00 | 41 | 1010.3 |
| 20260509154341 | 74 | 219 | 20.0 | 31.0 | 0.00 | 0.00 | 0.00 | 41 | 1010.3 |
| 20260509153411 | 73 | 212 | 20.0 | 27.0 | 0.00 | 0.00 | 0.00 | 42 | 1010.5 |
| 20260509153325 | 73 | 186 | 20.0 | 27.0 | 0.00 | 0.00 | 0.00 | 42 | 1010.4 |
| 20260509152414 | 71 | 236 | 20.0 | 27.0 | 0.00 | 0.00 | 0.00 | 43 | 1010.7 |
| 20260509152327 | 71 | 183 | 20.0 | 27.0 | 0.00 | 0.00 | 0.00 | 43 | 1010.7 |
| 20260509151419 | 70 | 215 | 18.0 | 27.0 | 0.00 | 0.00 | 0.00 | 44 | 1010.8 |
| 20260509151316 | 70 | 198 | 18.0 | 27.0 | 0.00 | 0.00 | 0.00 | 45 | 1010.8 |
| 20260509150429 | 69 | 192 | 19.0 | 27.0 | 0.00 | 0.00 | 0.00 | 46 | 1011.0 |
| 20260509150318 | 69 | 163 | 20.0 | 27.0 | 0.00 | 0.00 | 0.00 | 46 | 1011.0 |
| 20260509145409 | 68 | 215 | 19.0 | 26.0 | 0.00 | 0.00 | 0.00 | 47 | 1011.0 |
| 20260509145321 | 68 | 197 | 20.0 | 26.0 | 0.00 | 0.00 | 0.00 | 47 | 1011.0 |
| 20260509144413 | 67 | 185 | 17.0 | 26.0 | 0.00 | 0.00 | 0.00 | 50 | 1011.1 |
| 20260509144326 | 67 | 196 | 18.0 | 26.0 | 0.00 | 0.00 | 0.00 | 50 | 1011.1 |
| 20260509143417 | 65 | 217 | 18.0 | 24.0 | 0.00 | 0.00 | 0.00 | 53 | 1011.2 |
| 20260509143314 | 65 | 191 | 16.0 | 28.0 | 0.00 | 0.00 | 0.00 | 53 | 1011.2 |
| 20260509142441 | 64 | 219 | 18.0 | 34.0 | 0.00 | 0.00 | 0.00 | 53 | 1011.3 |
| 20260509142314 | 64 | 215 | 19.0 | 34.0 | 0.00 | 0.00 | 0.00 | 53 | 1011.3 |
| 20260509141426 | 63 | 187 | 17.0 | 28.0 | 0.00 | 0.00 | 0.00 | 55 | 1011.4 |
| 20260509141318 | 63 | 205 | 18.0 | 28.0 | 0.00 | 0.00 | 0.00 | 55 | 1011.4 |
| 20260509140409 | 62 | 166 | 18.0 | 31.0 | 0.00 | 0.00 | 0.00 | 54 | 1011.7 |
| 20260509140343 | 62 | 204 | 22.0 | 31.0 | 0.00 | 0.00 | 0.00 | 54 | 1011.8 |
| 20260509135411 | 62 | 202 | 20.0 | 26.0 | 0.00 | 0.00 | 0.00 | 55 | 1011.9 |
| 20260509135322 | 61 | 217 | 21.0 | 29.0 | 0.00 | 0.00 | 0.00 | 55 | 1011.9 |
| 20260509134412 | 60 | 222 | 16.0 | 22.0 | 0.00 | 0.00 | 0.00 | 58 | 1011.9 |
| 20260509134308 | 60 | 194 | 18.0 | 22.0 | 0.00 | 0.00 | 0.00 | 57 | 1011.9 |
| 20260509133419 | 58 | 221 | 15.0 | 22.0 | 0.00 | 0.00 | 0.00 | 61 | 1011.9 |
| 20260509133313 | 58 | 221 | 14.0 | 23.0 | 0.00 | 0.00 | 0.00 | 61 | 1011.9 |